owner,sensor,date,latitude,longitude,vertical_datum,direction_of_sea_water_velocity,sea_water_speed,upward_sea_water_velocity,qcFlag 
TABS,ioos:station:wmo:42048:1,2007-09-01T00:00:00Z,27.9396,-96.8429,2.0,264.3333484,16.71165462,-99999.0,'11111222,11111222,99999999' 
TABS,ioos:station:wmo:42048:1,2007-09-01T00:30:00Z,27.9396,-96.8429,2.0,269.1692655,14.49152166,-99999.0,'11111222,11111222,99999999' 
TABS,ioos:station:wmo:42048:1,2007-09-01T01:00:00Z,27.9396,-96.8429,2.0,261.4474473,13.24729784,-99999.0,'11111222,11111222,99999999' 
TABS,ioos:station:wmo:42048:1,2007-09-01T01:30:00Z,27.9396,-96.8429,2.0,265.6854475,17.14858886,-99999.0,'11111222,11111222,99999999' 
TABS,ioos:station:wmo:42048:1,2007-09-01T02:00:00Z,27.9396,-96.8429,2.0,273.5803756,19.69843902,-99999.0,'11111222,11111222,99999999' 
TABS,ioos:station:wmo:42048:1,2007-09-01T02:30:00Z,27.9396,-96.8429,2.0,260.8053839,15.45860602,-99999.0,'11111222,11111222,99999999' 
TABS,ioos:station:wmo:42048:1,2007-09-01T03:00:00Z,27.9396,-96.8429,2.0,293.7557555,10.67440396,-99999.0,'11111222,11111222,99999999' 
TABS,ioos:station:wmo:42048:1,2007-09-01T03:30:00Z,27.9396,-96.8429,2.0,277.4138191,9.610332981,-99999.0,'11133222,11111222,99999999' 
TABS,ioos:station:wmo:42048:1,2007-09-01T04:00:00Z,27.9396,-96.8429,2.0,255.7796801,9.078155099,-99999.0,'11133222,11111222,99999999' 
TABS,ioos:station:wmo:42048:1,2007-09-01T04:30:00Z,27.9396,-96.8429,2.0,279.6864581,10.1040388,-99999.0,'11111222,11111222,99999999' 
TABS,ioos:station:wmo:42048:1,2007-09-01T05:00:00Z,27.9396,-96.8429,2.0,286.9481283,10.6003632,-99999.0,'11111222,11111222,99999999' 
TABS,ioos:station:wmo:42048:1,2007-09-01T05:30:00Z,27.9396,-96.8429,2.0,274.9275193,8.150116564,-99999.0,'11133222,11111222,99999999' 
TABS,ioos:station:wmo:42048:1,2007-09-01T06:00:00Z,27.9396,-96.8429,2.0,254.3018233,9.53565939,-99999.0,'11133222,11111222,99999999' 
TABS,ioos:station:wmo:42048:1,2007-09-01T06:30:00Z,27.9396,-96.8429,2.0,263.2012795,8.701178081,-99999.0,'11133222,11111222,99999999' 
TABS,ioos:station:wmo:42048:1,2007-09-01T07:00:00Z,27.9396,-96.8429,2.0,257.3148415,3.187804887,-99999.0,'11133222,11111222,99999999' 
TABS,ioos:station:wmo:42048:1,2007-09-01T07:30:00Z,27.9396,-96.8429,2.0,280.6525811,3.245935921,-99999.0,'11133222,11111222,99999999' 
TABS,ioos:station:wmo:42048:1,2007-09-01T08:00:00Z,27.9396,-96.8429,2.0,247.7755856,11.58027634,-99999.0,'11111222,11111222,99999999' 
TABS,ioos:station:wmo:42048:1,2007-09-01T08:30:00Z,27.9396,-96.8429,2.0,266.4413603,7.895220073,-99999.0,'11133222,11111222,99999999' 
TABS,ioos:station:wmo:42048:1,2007-09-01T09:00:00Z,27.9396,-96.8429,2.0,259.3328023,8.211899902,-99999.0,'11133222,11111222,99999999' 
TABS,ioos:station:wmo:42048:1,2007-09-01T09:30:00Z,27.9396,-96.8429,2.0,268.0797734,7.164021217,-99999.0,'11133222,11111222,99999999' 
TABS,ioos:station:wmo:42048:1,2007-09-01T10:00:00Z,27.9396,-96.8429,2.0,249.4612712,7.581925877,-99999.0,'11133222,11111222,99999999' 
TABS,ioos:station:wmo:42048:1,2007-09-01T10:30:00Z,27.9396,-96.8429,2.0,224.1540535,7.665872423,-99999.0,'11133222,11111222,99999999' 
TABS,ioos:station:wmo:42048:1,2007-09-01T11:00:00Z,27.9396,-96.8429,2.0,232.4674198,8.650578015,-99999.0,'11133222,11111222,99999999' 
TABS,ioos:station:wmo:42048:1,2007-09-01T11:30:00Z,27.9396,-96.8429,2.0,252.9227689,8.138826697,-99999.0,'11133222,11111222,99999999' 
TABS,ioos:station:wmo:42048:1,2007-09-01T12:00:00Z,27.9396,-96.8429,2.0,234.6493119,7.466625744,-99999.0,'11133222,11111222,99999999' 
TABS,ioos:station:wmo:42048:1,2007-09-01T12:30:00Z,27.9396,-96.8429,2.0,231.3315042,10.70727323,-99999.0,'11111222,11111222,99999999' 
TABS,ioos:station:wmo:42048:1,2007-09-01T13:00:00Z,27.9396,-96.8429,2.0,214.8288258,13.25440681,-99999.0,'11111222,11111222,99999999' 
TABS,ioos:station:wmo:42048:1,2007-09-01T13:30:00Z,27.9396,-96.8429,2.0,228.9035709,10.80137028,-99999.0,'11111222,11111222,99999999' 
TABS,ioos:station:wmo:42048:1,2007-09-01T14:00:00Z,27.9396,-96.8429,2.0,227.11101,12.28371279,-99999.0,'11111222,11111222,99999999' 
TABS,ioos:station:wmo:42048:1,2007-09-01T14:30:00Z,27.9396,-96.8429,2.0,237.8398056,5.504588995,-99999.0,'11133222,11111222,99999999' 
TABS,ioos:station:wmo:42048:1,2007-09-01T15:00:00Z,27.9396,-96.8429,2.0,236.5628691,8.78376343,-99999.0,'11133222,11111222,99999999' 
TABS,ioos:station:wmo:42048:1,2007-09-01T15:30:00Z,27.9396,-96.8429,2.0,239.3835886,7.91309042,-99999.0,'11133222,11111222,99999999' 
TABS,ioos:station:wmo:42048:1,2007-09-01T16:00:00Z,27.9396,-96.8429,2.0,228.5293364,11.37063323,-99999.0,'11111222,11111222,99999999' 
TABS,ioos:station:wmo:42048:1,2007-09-01T16:30:00Z,27.9396,-96.8429,2.0,240.0066953,15.18323417,-99999.0,'11111222,11111222,99999999' 
TABS,ioos:station:wmo:42048:1,2007-09-01T17:00:00Z,27.9396,-96.8429,2.0,221.7168002,10.24865357,-99999.0,'11111222,11111222,99999999' 
TABS,ioos:station:wmo:42048:1,2007-09-01T17:30:00Z,27.9396,-96.8429,2.0,240.2921016,11.42112079,-99999.0,'11111222,11111222,99999999' 
TABS,ioos:station:wmo:42048:1,2007-09-01T18:00:00Z,27.9396,-96.8429,2.0,257.6775522,12.32389955,-99999.0,'11111222,11111222,99999999' 
TABS,ioos:station:wmo:42048:1,2007-09-01T18:30:00Z,27.9396,-96.8429,2.0,276.7440535,15.83958648,-99999.0,'11111222,11111222,99999999' 
TABS,ioos:station:wmo:42048:1,2007-09-01T19:00:00Z,27.9396,-96.8429,2.0,238.0936929,8.552075771,-99999.0,'11133222,11111222,99999999' 
TABS,ioos:station:wmo:42048:1,2007-09-01T19:30:00Z,27.9396,-96.8429,2.0,280.4918734,7.413946318,-99999.0,'11133222,11111222,99999999' 
TABS,ioos:station:wmo:42048:1,2007-09-01T20:00:00Z,27.9396,-96.8429,2.0,274.2987031,10.94077237,-99999.0,'11111222,11111222,99999999' 
TABS,ioos:station:wmo:42048:1,2007-09-01T20:30:00Z,27.9396,-96.8429,2.0,255.4377351,8.988748522,-99999.0,'11133222,11111222,99999999' 
TABS,ioos:station:wmo:42048:1,2007-09-01T21:00:00Z,27.9396,-96.8429,2.0,290.1980113,9.355281931,-99999.0,'11133222,11111222,99999999' 
TABS,ioos:station:wmo:42048:1,2007-09-01T21:30:00Z,27.9396,-96.8429,2.0,256.9302917,12.07271718,-99999.0,'11111222,11111222,99999999' 
TABS,ioos:station:wmo:42048:1,2007-09-01T22:00:00Z,27.9396,-96.8429,2.0,274.4230762,12.83822807,-99999.0,'11111222,11111222,99999999' 
TABS,ioos:station:wmo:42048:1,2007-09-01T22:30:00Z,27.9396,-96.8429,2.0,268.2330771,10.70508758,-99999.0,'11111222,11111222,99999999' 
TABS,ioos:station:wmo:42048:1,2007-09-01T23:00:00Z,27.9396,-96.8429,2.0,273.1831363,10.9869468,-99999.0,'11111222,11111222,99999999' 
TABS,ioos:station:wmo:42048:1,2007-09-01T23:30:00Z,27.9396,-96.8429,2.0,277.3651499,11.85782442,-99999.0,'11111222,11111222,99999999' 
TABS,ioos:station:wmo:42048:1,2007-09-02T00:00:00Z,27.9396,-96.8429,2.0,289.4748118,9.238533433,-99999.0,'11133222,11111222,99999999' 
TABS,ioos:station:wmo:42048:1,2007-09-02T00:30:00Z,27.9396,-96.8429,2.0,273.7045652,8.668108213,-99999.0,'11133222,11111222,99999999' 
TABS,ioos:station:wmo:42048:1,2007-09-02T01:00:00Z,27.9396,-96.8429,2.0,273.0264489,9.092678373,-99999.0,'11133222,11111222,99999999' 
TABS,ioos:station:wmo:42048:1,2007-09-02T01:30:00Z,27.9396,-96.8429,2.0,267.4643866,9.26907223,-99999.0,'11133222,11111222,99999999' 
TABS,ioos:station:wmo:42048:1,2007-09-02T02:00:00Z,27.9396,-96.8429,2.0,223.4878335,2.412073797,-99999.0,'11133222,11111222,99999999' 
TABS,ioos:station:wmo:42048:1,2007-09-02T02:30:00Z,27.9396,-96.8429,2.0,230.3047815,1.988416455,-99999.0,'11133222,11111222,99999999' 
TABS,ioos:station:wmo:42048:1,2007-09-02T03:00:00Z,27.9396,-96.8429,2.0,193.8231644,3.264552037,-99999.0,'11133222,11111222,99999999' 
TABS,ioos:station:wmo:42048:1,2007-09-02T03:30:00Z,27.9396,-96.8429,2.0,279.3197205,1.976081982,-99999.0,'11133222,11111222,99999999' 
TABS,ioos:station:wmo:42048:1,2007-09-02T04:00:00Z,27.9396,-96.8429,2.0,228.8137502,2.444933537,-99999.0,'11133222,11111222,99999999' 
TABS,ioos:station:wmo:42048:1,2007-09-02T04:30:00Z,27.9396,-96.8429,2.0,192.4329957,5.201999616,-99999.0,'11133222,11111222,99999999' 
TABS,ioos:station:wmo:42048:1,2007-09-02T05:00:00Z,27.9396,-96.8429,2.0,255.0681968,1.086692229,-99999.0,'11133222,11111222,99999999' 
TABS,ioos:station:wmo:42048:1,2007-09-02T05:30:00Z,27.9396,-96.8429,2.0,155.2824064,1.387083271,-99999.0,'11133222,11111222,99999999' 
TABS,ioos:station:wmo:42048:1,2007-09-02T06:00:00Z,27.9396,-96.8429,2.0,189.4620896,1.764001134,-99999.0,'11133222,11111222,99999999' 
TABS,ioos:station:wmo:42048:1,2007-09-02T06:30:00Z,27.9396,-96.8429,2.0,176.8857388,3.865708215,-99999.0,'11133222,11111222,99999999' 
TABS,ioos:station:wmo:42048:1,2007-09-02T07:00:00Z,27.9396,-96.8429,2.0,130.9142875,7.741278964,-99999.0,'11133222,11111222,99999999' 
TABS,ioos:station:wmo:42048:1,2007-09-02T07:30:00Z,27.9396,-96.8429,2.0,185.411646,2.862760905,-99999.0,'11133222,11111222,99999999' 
TABS,ioos:station:wmo:42048:1,2007-09-02T08:00:00Z,27.9396,-96.8429,2.0,214.2933975,3.159192935,-99999.0,'11133222,11111222,99999999' 
TABS,ioos:station:wmo:42048:1,2007-09-02T08:30:00Z,27.9396,-96.8429,2.0,192.2234517,6.517768023,-99999.0,'11133222,11111222,99999999' 
TABS,ioos:station:wmo:42048:1,2007-09-02T09:00:00Z,27.9396,-96.8429,2.0,154.2793926,5.461071323,-99999.0,'11133222,11111222,99999999' 
TABS,ioos:station:wmo:42048:1,2007-09-02T09:30:00Z,27.9396,-96.8429,2.0,213.6595112,5.25023809,-99999.0,'11133222,11111222,99999999' 
TABS,ioos:station:wmo:42048:1,2007-09-02T10:00:00Z,27.9396,-96.8429,2.0,175.4597851,4.042684751,-99999.0,'11133222,11111222,99999999' 
TABS,ioos:station:wmo:42048:1,2007-09-02T10:30:00Z,27.9396,-96.8429,2.0,97.34120864,1.643471935,-99999.0,'11133222,11111222,99999999' 
TABS,ioos:station:wmo:42048:1,2007-09-02T11:00:00Z,27.9396,-96.8429,2.0,198.0183564,5.657464096,-99999.0,'11133222,11111222,99999999' 
TABS,ioos:station:wmo:42048:1,2007-09-02T11:30:00Z,27.9396,-96.8429,2.0,198.8799892,7.324056253,-99999.0,'11133222,11111222,99999999' 
TABS,ioos:station:wmo:42048:1,2007-09-02T12:00:00Z,27.9396,-96.8429,2.0,176.9753833,7.770823637,-99999.0,'11133222,11111222,99999999' 
TABS,ioos:station:wmo:42048:1,2007-09-02T12:30:00Z,27.9396,-96.8429,2.0,215.8042709,6.239078458,-99999.0,'11133222,11111222,99999999' 
TABS,ioos:station:wmo:42048:1,2007-09-02T13:00:00Z,27.9396,-96.8429,2.0,201.6423719,4.690682253,-99999.0,'11133222,11111222,99999999' 
TABS,ioos:station:wmo:42048:1,2007-09-02T13:30:00Z,27.9396,-96.8429,2.0,196.2417715,5.041200254,-99999.0,'11133222,11111222,99999999' 
TABS,ioos:station:wmo:42048:1,2007-09-02T14:00:00Z,27.9396,-96.8429,2.0,211.7388561,6.843420198,-99999.0,'11133222,11111222,99999999' 
TABS,ioos:station:wmo:42048:1,2007-09-02T14:30:00Z,27.9396,-96.8429,2.0,187.8627623,6.067042113,-99999.0,'11133222,11111222,99999999' 
TABS,ioos:station:wmo:42048:1,2007-09-02T15:00:00Z,27.9396,-96.8429,2.0,186.6904311,5.235656597,-99999.0,'11133222,11111222,99999999' 
TABS,ioos:station:wmo:42048:1,2007-09-02T15:30:00Z,27.9396,-96.8429,2.0,195.1855913,6.52794761,-99999.0,'11133222,11111222,99999999' 
TABS,ioos:station:wmo:42048:1,2007-09-02T16:00:00Z,27.9396,-96.8429,2.0,231.1527741,5.739416347,-99999.0,'11133222,11111222,99999999' 
TABS,ioos:station:wmo:42048:1,2007-09-02T16:30:00Z,27.9396,-96.8429,2.0,222.8735171,11.81681852,-99999.0,'11111222,11111222,99999999' 
TABS,ioos:station:wmo:42048:1,2007-09-02T17:00:00Z,27.9396,-96.8429,2.0,236.3425757,9.635144005,-99999.0,'11133222,11111222,99999999' 
TABS,ioos:station:wmo:42048:1,2007-09-02T17:30:00Z,27.9396,-96.8429,2.0,232.5036107,9.150546432,-99999.0,'11133222,11111222,99999999' 
TABS,ioos:station:wmo:42048:1,2007-09-02T18:00:00Z,27.9396,-96.8429,2.0,238.2223061,10.38700149,-99999.0,'11111222,11111222,99999999' 
TABS,ioos:station:wmo:42048:1,2007-09-02T18:30:00Z,27.9396,-96.8429,2.0,260.2033921,4.231701785,-99999.0,'11133222,11111222,99999999' 
TABS,ioos:station:wmo:42048:1,2007-09-02T19:00:00Z,27.9396,-96.8429,2.0,233.3212311,4.788026733,-99999.0,'11133222,11111222,99999999' 
TABS,ioos:station:wmo:42048:1,2007-09-02T19:30:00Z,27.9396,-96.8429,2.0,262.9197296,7.870006353,-99999.0,'11133222,11111222,99999999' 
TABS,ioos:station:wmo:42048:1,2007-09-02T20:00:00Z,27.9396,-96.8429,2.0,252.5581399,5.471562848,-99999.0,'11133222,11111222,99999999' 
TABS,ioos:station:wmo:42048:1,2007-09-02T20:30:00Z,27.9396,-96.8429,2.0,254.3285243,9.181285313,-99999.0,'11133222,11111222,99999999' 
TABS,ioos:station:wmo:42048:1,2007-09-02T21:00:00Z,27.9396,-96.8429,2.0,252.8599115,7.974139452,-99999.0,'11133222,11111222,99999999' 
TABS,ioos:station:wmo:42048:1,2007-09-02T21:30:00Z,27.9396,-96.8429,2.0,241.2281434,7.666452896,-99999.0,'11133222,11111222,99999999' 
TABS,ioos:station:wmo:42048:1,2007-09-02T22:00:00Z,27.9396,-96.8429,2.0,252.8044428,7.746231342,-99999.0,'11133222,11111222,99999999' 
TABS,ioos:station:wmo:42048:1,2007-09-02T22:30:00Z,27.9396,-96.8429,2.0,242.8882834,7.504585265,-99999.0,'11133222,11111222,99999999' 
TABS,ioos:station:wmo:42048:1,2007-09-02T23:00:00Z,27.9396,-96.8429,2.0,269.8838305,4.950010101,-99999.0,'11133222,11111222,99999999' 
TABS,ioos:station:wmo:42048:1,2007-09-02T23:30:00Z,27.9396,-96.8429,2.0,243.7629282,6.243204305,-99999.0,'11133222,11111222,99999999' 
TABS,ioos:station:wmo:42048:1,2007-09-03T00:00:00Z,27.9396,-96.8429,2.0,245.7510569,7.523808876,-99999.0,'11133222,11111222,99999999' 
TABS,ioos:station:wmo:42048:1,2007-09-03T00:30:00Z,27.9396,-96.8429,2.0,245.0581241,5.051069194,-99999.0,'11133222,11111222,99999999' 
TABS,ioos:station:wmo:42048:1,2007-09-03T01:00:00Z,27.9396,-96.8429,2.0,254.3710371,9.688188685,-99999.0,'11133222,11111222,99999999' 
TABS,ioos:station:wmo:42048:1,2007-09-03T01:30:00Z,27.9396,-96.8429,2.0,239.0707251,5.642304494,-99999.0,'11133222,11111222,99999999' 
TABS,ioos:station:wmo:42048:1,2007-09-03T02:00:00Z,27.9396,-96.8429,2.0,221.1267782,7.328219429,-99999.0,'11133222,11111222,99999999' 
TABS,ioos:station:wmo:42048:1,2007-09-03T02:30:00Z,27.9396,-96.8429,2.0,209.8352589,8.622905543,-99999.0,'11133222,11111222,99999999' 
TABS,ioos:station:wmo:42048:1,2007-09-03T03:00:00Z,27.9396,-96.8429,2.0,244.3874443,8.605579585,-99999.0,'11133222,11111222,99999999' 
TABS,ioos:station:wmo:42048:1,2007-09-03T03:30:00Z,27.9396,-96.8429,2.0,224.4470103,10.99602201,-99999.0,'11111222,11111222,99999999' 
TABS,ioos:station:wmo:42048:1,2007-09-03T04:00:00Z,27.9396,-96.8429,2.0,222.1101106,9.678455455,-99999.0,'11133222,11111222,99999999' 
TABS,ioos:station:wmo:42048:1,2007-09-03T04:30:00Z,27.9396,-96.8429,2.0,227.64619,6.278733949,-99999.0,'11133222,11111222,99999999' 
TABS,ioos:station:wmo:42048:1,2007-09-03T05:00:00Z,27.9396,-96.8429,2.0,258.7846906,3.547745763,-99999.0,'11133222,11111222,99999999' 
TABS,ioos:station:wmo:42048:1,2007-09-03T05:30:00Z,27.9396,-96.8429,2.0,227.1526421,5.64669815,-99999.0,'11133222,11111222,99999999' 
TABS,ioos:station:wmo:42048:1,2007-09-03T06:00:00Z,27.9396,-96.8429,2.0,203.6650265,2.740456166,-99999.0,'11133222,11111222,99999999' 
TABS,ioos:station:wmo:42048:1,2007-09-03T06:30:00Z,27.9396,-96.8429,2.0,182.7384958,4.395019909,-99999.0,'11133222,11111222,99999999' 
TABS,ioos:station:wmo:42048:1,2007-09-03T07:00:00Z,27.9396,-96.8429,2.0,188.577486,7.240994407,-99999.0,'11133222,11111222,99999999' 
TABS,ioos:station:wmo:42048:1,2007-09-03T07:30:00Z,27.9396,-96.8429,2.0,137.2791155,2.844819854,-99999.0,'11133222,11111222,99999999' 
TABS,ioos:station:wmo:42048:1,2007-09-03T08:00:00Z,27.9396,-96.8429,2.0,173.5329226,7.990844761,-99999.0,'11133222,11111222,99999999' 
TABS,ioos:station:wmo:42048:1,2007-09-03T08:30:00Z,27.9396,-96.8429,2.0,163.314168,8.080222769,-99999.0,'11133222,11111222,99999999' 
TABS,ioos:station:wmo:42048:1,2007-09-03T09:00:00Z,27.9396,-96.8429,2.0,187.4624807,6.313477647,-99999.0,'11133222,11111222,99999999' 
TABS,ioos:station:wmo:42048:1,2007-09-03T09:30:00Z,27.9396,-96.8429,2.0,153.3620903,3.52404597,-99999.0,'11133222,11111222,99999999' 
TABS,ioos:station:wmo:42048:1,2007-09-03T10:00:00Z,27.9396,-96.8429,2.0,184.0139558,4.571214281,-99999.0,'11133222,11111222,99999999' 
TABS,ioos:station:wmo:42048:1,2007-09-03T10:30:00Z,27.9396,-96.8429,2.0,208.0231449,7.555885124,-99999.0,'11133222,11111222,99999999' 
TABS,ioos:station:wmo:42048:1,2007-09-03T11:00:00Z,27.9396,-96.8429,2.0,203.0612551,2.19544984,-99999.0,'11133222,11111222,99999999' 
TABS,ioos:station:wmo:42048:1,2007-09-03T11:30:00Z,27.9396,-96.8429,2.0,195.0147202,3.975738925,-99999.0,'11133222,11111222,99999999' 
TABS,ioos:station:wmo:42048:1,2007-09-03T12:00:00Z,27.9396,-96.8429,2.0,243.7938057,4.279918224,-99999.0,'11133222,11111222,99999999' 
TABS,ioos:station:wmo:42048:1,2007-09-03T12:30:00Z,27.9396,-96.8429,2.0,201.0631887,7.929848674,-99999.0,'11133222,11111222,99999999' 
TABS,ioos:station:wmo:42048:1,2007-09-03T13:00:00Z,27.9396,-96.8429,2.0,213.4815996,6.870007278,-99999.0,'11133222,11111222,99999999' 
TABS,ioos:station:wmo:42048:1,2007-09-03T13:30:00Z,27.9396,-96.8429,2.0,217.7810134,8.047018081,-99999.0,'11133222,11111222,99999999' 
TABS,ioos:station:wmo:42048:1,2007-09-03T14:00:00Z,27.9396,-96.8429,2.0,233.8103967,5.724403899,-99999.0,'11133222,11111222,99999999' 
TABS,ioos:station:wmo:42048:1,2007-09-03T14:30:00Z,27.9396,-96.8429,2.0,243.6342256,3.850532431,-99999.0,'11133222,11111222,99999999' 
TABS,ioos:station:wmo:42048:1,2007-09-03T15:00:00Z,27.9396,-96.8429,2.0,234.0619049,7.991057502,-99999.0,'11133222,11111222,99999999' 
TABS,ioos:station:wmo:42048:1,2007-09-03T15:30:00Z,27.9396,-96.8429,2.0,222.5858403,6.04405493,-99999.0,'11133222,11111222,99999999' 
TABS,ioos:station:wmo:42048:1,2007-09-03T16:00:00Z,27.9396,-96.8429,2.0,313.8311791,1.732772345,-99999.0,'11133222,11111222,99999999' 
TABS,ioos:station:wmo:42048:1,2007-09-03T16:30:00Z,27.9396,-96.8429,2.0,263.7576793,2.575266976,-99999.0,'11133222,11111222,99999999' 
TABS,ioos:station:wmo:42048:1,2007-09-03T17:00:00Z,27.9396,-96.8429,2.0,207.790167,5.855365061,-99999.0,'11133222,11111222,99999999' 
TABS,ioos:station:wmo:42048:1,2007-09-03T17:30:00Z,27.9396,-96.8429,2.0,163.009006,1.505722418,-99999.0,'11133222,11111222,99999999' 
TABS,ioos:station:wmo:42048:1,2007-09-03T18:00:00Z,27.9396,-96.8429,2.0,168.4651959,3.50069993,-99999.0,'11133222,11111222,99999999' 
TABS,ioos:station:wmo:42048:1,2007-09-03T18:30:00Z,27.9396,-96.8429,2.0,221.6332315,0.842911621,-99999.0,'11133222,11111222,99999999' 
TABS,ioos:station:wmo:42048:1,2007-09-03T19:00:00Z,27.9396,-96.8429,2.0,135.1871348,4.327516609,-99999.0,'11133222,11111222,99999999' 
TABS,ioos:station:wmo:42048:1,2007-09-03T19:30:00Z,27.9396,-96.8429,2.0,169.677963,6.027545106,-99999.0,'11133222,11111222,99999999' 
TABS,ioos:station:wmo:42048:1,2007-09-03T20:00:00Z,27.9396,-96.8429,2.0,154.4492492,9.598708246,-99999.0,'11133222,11111222,99999999' 
TABS,ioos:station:wmo:42048:1,2007-09-03T20:30:00Z,27.9396,-96.8429,2.0,158.6325981,6.861639746,-99999.0,'11133222,11111222,99999999' 
TABS,ioos:station:wmo:42048:1,2007-09-03T21:00:00Z,27.9396,-96.8429,2.0,200.857787,7.105666753,-99999.0,'11133222,11111222,99999999' 
TABS,ioos:station:wmo:42048:1,2007-09-03T21:30:00Z,27.9396,-96.8429,2.0,181.5829345,7.963039621,-99999.0,'11133222,11111222,99999999' 
TABS,ioos:station:wmo:42048:1,2007-09-03T22:00:00Z,27.9396,-96.8429,2.0,212.3365895,9.160654998,-99999.0,'11133222,11111222,99999999' 
TABS,ioos:station:wmo:42048:1,2007-09-03T22:30:00Z,27.9396,-96.8429,2.0,203.4171032,12.37966074,-99999.0,'11111222,11111222,99999999' 
TABS,ioos:station:wmo:42048:1,2007-09-03T23:00:00Z,27.9396,-96.8429,2.0,196.0718241,12.42566698,-99999.0,'11111222,11111222,99999999' 
TABS,ioos:station:wmo:42048:1,2007-09-03T23:30:00Z,27.9396,-96.8429,2.0,191.3326966,9.77050664,-99999.0,'11133222,11111222,99999999' 
TABS,ioos:station:wmo:42048:1,2007-09-04T00:00:00Z,27.9396,-96.8429,2.0,201.9342608,11.19003128,-99999.0,'11111222,11111222,99999999' 
TABS,ioos:station:wmo:42048:1,2007-09-04T00:30:00Z,27.9396,-96.8429,2.0,192.7485567,13.27732654,-99999.0,'11111222,11111222,99999999' 
TABS,ioos:station:wmo:42048:1,2007-09-04T01:00:00Z,27.9396,-96.8429,2.0,211.0472392,11.73051576,-99999.0,'11111222,11111222,99999999' 
TABS,ioos:station:wmo:42048:1,2007-09-04T01:30:00Z,27.9396,-96.8429,2.0,224.6537003,11.70990179,-99999.0,'11111222,11111222,99999999' 
TABS,ioos:station:wmo:42048:1,2007-09-04T02:00:00Z,27.9396,-96.8429,2.0,230.0744028,12.87029526,-99999.0,'11111222,11111222,99999999' 
TABS,ioos:station:wmo:42048:1,2007-09-04T02:30:00Z,27.9396,-96.8429,2.0,212.7457031,9.594842365,-99999.0,'11133222,11111222,99999999' 
TABS,ioos:station:wmo:42048:1,2007-09-04T03:00:00Z,27.9396,-96.8429,2.0,222.1740806,13.19651469,-99999.0,'11111222,11111222,99999999' 
TABS,ioos:station:wmo:42048:1,2007-09-04T03:30:00Z,27.9396,-96.8429,2.0,237.1371458,19.20295029,-99999.0,'11111222,11111222,99999999' 
TABS,ioos:station:wmo:42048:1,2007-09-04T04:00:00Z,27.9396,-96.8429,2.0,221.0332039,13.08453285,-99999.0,'11111222,11111222,99999999' 
TABS,ioos:station:wmo:42048:1,2007-09-04T04:30:00Z,27.9396,-96.8429,2.0,222.4567064,9.880941251,-99999.0,'11133222,11111222,99999999' 
TABS,ioos:station:wmo:42048:1,2007-09-04T05:00:00Z,27.9396,-96.8429,2.0,218.2499518,12.45361393,-99999.0,'11111222,11111222,99999999' 
TABS,ioos:station:wmo:42048:1,2007-09-04T05:30:00Z,27.9396,-96.8429,2.0,207.9543066,11.43414186,-99999.0,'11111222,11111222,99999999' 
TABS,ioos:station:wmo:42048:1,2007-09-04T06:00:00Z,27.9396,-96.8429,2.0,215.5504894,10.1646938,-99999.0,'11111222,11111222,99999999' 
TABS,ioos:station:wmo:42048:1,2007-09-04T06:30:00Z,27.9396,-96.8429,2.0,226.4607999,10.81517915,-99999.0,'11111222,11111222,99999999' 
TABS,ioos:station:wmo:42048:1,2007-09-04T07:00:00Z,27.9396,-96.8429,2.0,249.8212462,12.78468224,-99999.0,'11111222,11111222,99999999' 
TABS,ioos:station:wmo:42048:1,2007-09-04T07:30:00Z,27.9396,-96.8429,2.0,222.5396065,9.554747511,-99999.0,'11133222,11111222,99999999' 
TABS,ioos:station:wmo:42048:1,2007-09-04T08:00:00Z,27.9396,-96.8429,2.0,249.5182411,12.57491153,-99999.0,'11111222,11111222,99999999' 
TABS,ioos:station:wmo:42048:1,2007-09-04T08:30:00Z,27.9396,-96.8429,2.0,255.3022942,6.936980611,-99999.0,'11133222,11111222,99999999' 
TABS,ioos:station:wmo:42048:1,2007-09-04T09:00:00Z,27.9396,-96.8429,2.0,252.7015387,7.331602826,-99999.0,'11133222,11111222,99999999' 
TABS,ioos:station:wmo:42048:1,2007-09-04T09:30:00Z,27.9396,-96.8429,2.0,254.7187799,3.908170928,-99999.0,'11133222,11111222,99999999' 
TABS,ioos:station:wmo:42048:1,2007-09-04T10:00:00Z,27.9396,-96.8429,2.0,254.9040935,9.445951514,-99999.0,'11133222,11111222,99999999' 
TABS,ioos:station:wmo:42048:1,2007-09-04T10:30:00Z,27.9396,-96.8429,2.0,240.879786,6.822316322,-99999.0,'11133222,11111222,99999999' 
TABS,ioos:station:wmo:42048:1,2007-09-04T11:00:00Z,27.9396,-96.8429,2.0,222.8035823,4.797707786,-99999.0,'11133222,11111222,99999999' 
TABS,ioos:station:wmo:42048:1,2007-09-04T11:30:00Z,27.9396,-96.8429,2.0,239.5301562,7.355848014,-99999.0,'11133222,11111222,99999999' 
TABS,ioos:station:wmo:42048:1,2007-09-04T12:00:00Z,27.9396,-96.8429,2.0,235.2726783,7.969573389,-99999.0,'11133222,11111222,99999999' 
TABS,ioos:station:wmo:42048:1,2007-09-04T12:30:00Z,27.9396,-96.8429,2.0,217.9794072,8.157530264,-99999.0,'11133222,11111222,99999999' 
TABS,ioos:station:wmo:42048:1,2007-09-04T13:00:00Z,27.9396,-96.8429,2.0,232.695718,5.016143937,-99999.0,'11133222,11111222,99999999' 
TABS,ioos:station:wmo:42048:1,2007-09-04T13:30:00Z,27.9396,-96.8429,2.0,215.14838,5.992703897,-99999.0,'11133222,11111222,99999999' 
TABS,ioos:station:wmo:42048:1,2007-09-04T14:00:00Z,27.9396,-96.8429,2.0,201.8164147,6.969146289,-99999.0,'11133222,11111222,99999999' 
TABS,ioos:station:wmo:42048:1,2007-09-04T14:30:00Z,27.9396,-96.8429,2.0,186.314811,7.545786904,-99999.0,'11133222,11111222,99999999' 
TABS,ioos:station:wmo:42048:1,2007-09-04T15:00:00Z,27.9396,-96.8429,2.0,172.2836988,8.416204608,-99999.0,'11133222,11111222,99999999' 
TABS,ioos:station:wmo:42048:1,2007-09-04T15:30:00Z,27.9396,-96.8429,2.0,163.8669867,7.557618673,-99999.0,'11133222,11111222,99999999' 
TABS,ioos:station:wmo:42048:1,2007-09-04T16:00:00Z,27.9396,-96.8429,2.0,179.9997895,7.48,-99999.0,'11133222,11111222,99999999' 